Year,Month,Day,Hour,Minute,Value (Times are PST for temperature in C)
2018,04,25,00,00,11.00
2018,04,25,00,01,10.90
2018,04,25,00,02,10.90
2018,04,25,00,03,10.90
2018,04,25,00,04,10.90
2018,04,25,00,05,10.90
2018,04,25,00,06,10.90
2018,04,25,00,07,10.80
2018,04,25,00,08,10.80
2018,04,25,00,09,10.80
2018,04,25,00,10,10.80
2018,04,25,00,11,10.80
2018,04,25,00,12,10.80
2018,04,25,00,13,10.80
2018,04,25,00,14,10.80
2018,04,25,00,15,10.80
2018,04,25,00,16,10.80
2018,04,25,00,17,10.80
2018,04,25,00,18,10.80
2018,04,25,00,19,10.70
2018,04,25,00,20,10.70
2018,04,25,00,21,10.60
2018,04,25,00,22,10.60
2018,04,25,00,23,10.50
2018,04,25,00,24,10.50
2018,04,25,00,25,10.50
2018,04,25,00,26,10.50
2018,04,25,00,27,10.50
2018,04,25,00,28,10.50
2018,04,25,00,29,10.40
2018,04,25,00,30,10.40
2018,04,25,00,31,10.40
2018,04,25,00,32,10.40
2018,04,25,00,33,10.30
2018,04,25,00,34,10.30
2018,04,25,00,35,10.30
2018,04,25,00,36,10.30
2018,04,25,00,37,10.30
2018,04,25,00,38,10.20
2018,04,25,00,39,10.20
2018,04,25,00,40,10.10
2018,04,25,00,41,10.10
2018,04,25,00,42,10.10
2018,04,25,00,43,10.10
2018,04,25,00,44,10.00
2018,04,25,00,45,10.00
2018,04,25,00,46,9.90
2018,04,25,00,47,9.90
2018,04,25,00,48,9.90
2018,04,25,00,49,9.90
2018,04,25,00,50,9.80
2018,04,25,00,51,9.80
2018,04,25,00,52,9.80
2018,04,25,00,53,9.80
2018,04,25,00,54,9.80
2018,04,25,00,55,9.80
2018,04,25,00,56,9.80
2018,04,25,00,57,9.80
2018,04,25,00,58,9.80
2018,04,25,00,59,9.80
2018,04,25,01,00,9.80
2018,04,25,01,01,9.80
2018,04,25,01,02,9.80
2018,04,25,01,03,9.80
2018,04,25,01,04,9.80
2018,04,25,01,05,9.80
2018,04,25,01,06,9.80
2018,04,25,01,07,9.90
2018,04,25,01,08,9.90
2018,04,25,01,09,9.90
2018,04,25,01,10,9.90
2018,04,25,01,11,9.90
2018,04,25,01,12,9.90
2018,04,25,01,13,9.90
2018,04,25,01,14,9.90
2018,04,25,01,15,9.90
2018,04,25,01,16,10.00
2018,04,25,01,17,10.10
2018,04,25,01,18,10.10
2018,04,25,01,19,10.20
2018,04,25,01,20,10.20
2018,04,25,01,21,10.20
2018,04,25,01,22,10.20
2018,04,25,01,23,10.10
2018,04,25,01,24,10.00
2018,04,25,01,25,10.00
2018,04,25,01,26,9.90
2018,04,25,01,27,9.80
2018,04,25,01,28,9.70
2018,04,25,01,29,9.60
2018,04,25,01,30,9.50
2018,04,25,01,31,9.40
2018,04,25,01,32,9.30
2018,04,25,01,33,9.30
2018,04,25,01,34,9.20
2018,04,25,01,35,9.10
2018,04,25,01,36,9.10
2018,04,25,01,37,9.00
2018,04,25,01,38,9.00
2018,04,25,01,39,9.00
2018,04,25,01,40,8.90
2018,04,25,01,41,8.90
2018,04,25,01,42,8.90
2018,04,25,01,43,8.90
2018,04,25,01,44,8.90
2018,04,25,01,45,8.90
2018,04,25,01,46,8.90
2018,04,25,01,47,8.90
2018,04,25,01,48,8.90
2018,04,25,01,49,8.90
2018,04,25,01,50,8.90
2018,04,25,01,51,8.90
2018,04,25,01,52,8.90
2018,04,25,01,53,8.90
2018,04,25,01,54,8.90
2018,04,25,01,55,8.80
2018,04,25,01,56,8.80
2018,04,25,01,57,8.80
2018,04,25,01,58,8.80
2018,04,25,01,59,8.80
2018,04,25,02,00,8.70
2018,04,25,02,01,8.70
2018,04,25,02,02,8.70
2018,04,25,02,03,8.70
2018,04,25,02,04,8.60
2018,04,25,02,05,8.60
2018,04,25,02,06,8.60
2018,04,25,02,07,8.50
2018,04,25,02,08,8.50
2018,04,25,02,09,8.40
2018,04,25,02,10,8.40
2018,04,25,02,11,8.40
2018,04,25,02,12,8.40
2018,04,25,02,13,8.40
2018,04,25,02,14,8.40
2018,04,25,02,15,8.40
2018,04,25,02,16,8.40
2018,04,25,02,17,8.40
2018,04,25,02,18,8.40
2018,04,25,02,19,8.40
2018,04,25,02,20,8.40
2018,04,25,02,21,8.30
2018,04,25,02,22,8.30
2018,04,25,02,23,8.40
2018,04,25,02,24,8.30
2018,04,25,02,25,8.30
2018,04,25,02,26,8.30
2018,04,25,02,27,8.30
2018,04,25,02,28,8.20
2018,04,25,02,29,8.20
2018,04,25,02,30,8.10
2018,04,25,02,31,8.00
2018,04,25,02,32,8.00
2018,04,25,02,33,7.90
2018,04,25,02,34,7.90
2018,04,25,02,35,7.80
2018,04,25,02,36,7.80
2018,04,25,02,37,7.80
2018,04,25,02,38,7.70
2018,04,25,02,39,7.70
2018,04,25,02,40,7.70
2018,04,25,02,41,7.70
2018,04,25,02,42,7.70
2018,04,25,02,43,7.80
2018,04,25,02,44,7.80
2018,04,25,02,45,7.80
2018,04,25,02,46,7.90
2018,04,25,02,47,7.90
2018,04,25,02,48,8.00
2018,04,25,02,49,8.00
2018,04,25,02,50,8.10
2018,04,25,02,51,8.10
2018,04,25,02,52,8.10
2018,04,25,02,53,8.10
2018,04,25,02,54,8.10
2018,04,25,02,55,8.10
2018,04,25,02,56,8.10
2018,04,25,02,57,8.10
2018,04,25,02,58,8.10
2018,04,25,02,59,8.10
2018,04,25,03,00,8.10
2018,04,25,03,01,8.20
2018,04,25,03,02,8.20
2018,04,25,03,03,8.30
2018,04,25,03,04,8.30
2018,04,25,03,05,8.40
2018,04,25,03,06,8.40
2018,04,25,03,07,8.50
2018,04,25,03,08,8.50
2018,04,25,03,09,8.40
2018,04,25,03,10,8.50
2018,04,25,03,11,8.50
2018,04,25,03,12,8.50
2018,04,25,03,13,8.50
2018,04,25,03,14,8.50
2018,04,25,03,15,8.50
2018,04,25,03,16,8.40
2018,04,25,03,17,8.40
2018,04,25,03,18,8.30
2018,04,25,03,19,8.20
2018,04,25,03,20,8.20
2018,04,25,03,21,8.10
2018,04,25,03,22,8.10
2018,04,25,03,23,8.10
2018,04,25,03,24,8.10
2018,04,25,03,25,8.00
2018,04,25,03,26,8.00
2018,04,25,03,27,8.00
2018,04,25,03,28,8.00
2018,04,25,03,29,8.00
2018,04,25,03,30,7.90
2018,04,25,03,31,7.90
2018,04,25,03,32,7.90
2018,04,25,03,33,8.00
2018,04,25,03,34,8.00
2018,04,25,03,35,8.10
2018,04,25,03,36,8.10
2018,04,25,03,37,8.10
2018,04,25,03,38,8.10
2018,04,25,03,39,8.10
2018,04,25,03,40,8.10
2018,04,25,03,41,8.10
2018,04,25,03,42,8.10
2018,04,25,03,43,8.00
2018,04,25,03,44,8.00
2018,04,25,03,45,8.00
2018,04,25,03,46,8.00
2018,04,25,03,47,7.90
2018,04,25,03,48,7.90
2018,04,25,03,49,7.90
2018,04,25,03,50,7.90
2018,04,25,03,51,7.80
2018,04,25,03,52,7.80
2018,04,25,03,53,7.80
2018,04,25,03,54,7.80
2018,04,25,03,55,7.70
2018,04,25,03,56,7.70
2018,04,25,03,57,7.70
2018,04,25,03,58,7.70
2018,04,25,03,59,7.70
2018,04,25,04,00,7.80
2018,04,25,04,01,7.80
2018,04,25,04,02,7.90
2018,04,25,04,03,7.90
2018,04,25,04,04,7.90
2018,04,25,04,05,7.90
2018,04,25,04,06,7.80
2018,04,25,04,07,7.80
2018,04,25,04,08,7.70
2018,04,25,04,09,7.70
2018,04,25,04,10,7.70
2018,04,25,04,11,7.70
2018,04,25,04,12,7.70
2018,04,25,04,13,7.70
2018,04,25,04,14,7.60
2018,04,25,04,15,7.70
2018,04,25,04,16,7.60
2018,04,25,04,17,7.70
2018,04,25,04,18,7.70
2018,04,25,04,19,7.70
2018,04,25,04,20,7.70
2018,04,25,04,21,7.70
2018,04,25,04,22,7.70
2018,04,25,04,23,7.80
2018,04,25,04,24,7.80
2018,04,25,04,25,7.80
2018,04,25,04,26,7.80
2018,04,25,04,27,7.80
2018,04,25,04,28,7.80
2018,04,25,04,29,7.70
2018,04,25,04,30,7.80
2018,04,25,04,31,7.80
2018,04,25,04,32,7.80
2018,04,25,04,33,7.70
2018,04,25,04,34,7.70
2018,04,25,04,35,7.60
2018,04,25,04,36,7.60
2018,04,25,04,37,7.60
2018,04,25,04,38,7.60
2018,04,25,04,39,7.60
2018,04,25,04,40,7.50
2018,04,25,04,41,7.50
2018,04,25,04,42,7.50
2018,04,25,04,43,7.50
2018,04,25,04,44,7.40
2018,04,25,04,45,7.40
2018,04,25,04,46,7.40
2018,04,25,04,47,7.40
2018,04,25,04,48,7.30
2018,04,25,04,49,7.30
2018,04,25,04,50,7.30
2018,04,25,04,51,7.30
2018,04,25,04,52,7.30
2018,04,25,04,53,7.30
2018,04,25,04,54,7.20
2018,04,25,04,55,7.20
2018,04,25,04,56,7.20
2018,04,25,04,57,7.10
2018,04,25,04,58,7.10
2018,04,25,04,59,7.00
2018,04,25,05,00,7.00
2018,04,25,05,01,6.90
2018,04,25,05,02,6.90
2018,04,25,05,03,6.90
2018,04,25,05,04,6.80
2018,04,25,05,05,6.80
2018,04,25,05,06,6.80
2018,04,25,05,07,6.80
2018,04,25,05,08,6.90
2018,04,25,05,09,6.90
2018,04,25,05,10,7.00
2018,04,25,05,11,7.10
2018,04,25,05,12,7.20
2018,04,25,05,13,7.30
2018,04,25,05,14,7.30
2018,04,25,05,15,7.40
2018,04,25,05,16,7.40
2018,04,25,05,17,7.30
2018,04,25,05,18,7.30
2018,04,25,05,19,7.30
2018,04,25,05,20,7.20
2018,04,25,05,21,7.20
2018,04,25,05,22,7.10
2018,04,25,05,23,7.10
2018,04,25,05,24,7.10
2018,04,25,05,25,7.00
2018,04,25,05,26,7.00
2018,04,25,05,27,6.90
2018,04,25,05,28,6.90
2018,04,25,05,29,7.00
2018,04,25,05,30,7.00
2018,04,25,05,31,7.00
2018,04,25,05,32,7.00
2018,04,25,05,33,7.10
2018,04,25,05,34,7.10
2018,04,25,05,35,7.20
2018,04,25,05,36,7.20
2018,04,25,05,37,7.20
2018,04,25,05,38,7.30
2018,04,25,05,39,7.30
2018,04,25,05,40,7.40
2018,04,25,05,41,7.40
2018,04,25,05,42,7.40
2018,04,25,05,43,7.40
2018,04,25,05,44,7.40
2018,04,25,05,45,7.40
2018,04,25,05,46,7.40
2018,04,25,05,47,7.40
2018,04,25,05,48,7.40
2018,04,25,05,49,7.40
2018,04,25,05,50,7.30
2018,04,25,05,51,7.30
2018,04,25,05,52,7.30
2018,04,25,05,53,7.30
2018,04,25,05,54,7.30
2018,04,25,05,55,7.30
2018,04,25,05,56,7.20
2018,04,25,05,57,7.20
2018,04,25,05,58,7.20
2018,04,25,05,59,7.20
2018,04,25,06,00,7.10
2018,04,25,06,01,7.10
2018,04,25,06,02,7.10
2018,04,25,06,03,7.10
2018,04,25,06,04,7.10
2018,04,25,06,05,7.10
2018,04,25,06,06,7.10
2018,04,25,06,07,7.10
2018,04,25,06,08,7.10
2018,04,25,06,09,7.10
2018,04,25,06,10,7.00
2018,04,25,06,11,7.00
2018,04,25,06,12,7.00
2018,04,25,06,13,7.00
2018,04,25,06,14,7.00
2018,04,25,06,15,7.00
2018,04,25,06,16,7.00
2018,04,25,06,17,7.10
2018,04,25,06,18,7.20
2018,04,25,06,19,7.20
2018,04,25,06,20,7.30
2018,04,25,06,21,7.30
2018,04,25,06,22,7.30
2018,04,25,06,23,7.40
2018,04,25,06,24,7.50
2018,04,25,06,25,7.50
2018,04,25,06,26,7.60
2018,04,25,06,27,7.60
2018,04,25,06,28,7.60
2018,04,25,06,29,7.70
2018,04,25,06,30,7.70
2018,04,25,06,31,7.70
2018,04,25,06,32,7.70
2018,04,25,06,33,7.70
2018,04,25,06,34,7.70
2018,04,25,06,35,7.70
2018,04,25,06,36,7.80
2018,04,25,06,37,7.80
2018,04,25,06,38,7.90
2018,04,25,06,39,7.90
2018,04,25,06,40,8.00
2018,04,25,06,41,8.10
2018,04,25,06,42,8.20
2018,04,25,06,43,8.30
2018,04,25,06,44,8.40
2018,04,25,06,45,8.40
2018,04,25,06,46,8.50
2018,04,25,06,47,8.60
2018,04,25,06,48,8.60
2018,04,25,06,49,8.60
2018,04,25,06,50,8.70
2018,04,25,06,51,8.80
2018,04,25,06,52,8.80
2018,04,25,06,53,8.80
2018,04,25,06,54,8.90
2018,04,25,06,55,8.90
2018,04,25,06,56,8.90
2018,04,25,06,57,8.90
2018,04,25,06,58,9.00
2018,04,25,06,59,9.00
2018,04,25,07,00,9.00
2018,04,25,07,01,9.10
2018,04,25,07,02,9.20
2018,04,25,07,03,9.20
2018,04,25,07,04,9.30
2018,04,25,07,05,9.30
2018,04,25,07,06,9.40
2018,04,25,07,07,9.40
2018,04,25,07,08,9.50
2018,04,25,07,09,9.60
2018,04,25,07,10,9.60
2018,04,25,07,11,9.60
2018,04,25,07,12,9.70
2018,04,25,07,13,9.70
2018,04,25,07,14,9.70
2018,04,25,07,15,9.80
2018,04,25,07,16,9.80
2018,04,25,07,17,9.90
2018,04,25,07,18,10.00
2018,04,25,07,19,10.10
2018,04,25,07,20,10.20
2018,04,25,07,21,10.20
2018,04,25,07,22,10.30
2018,04,25,07,23,10.40
2018,04,25,07,24,10.50
2018,04,25,07,25,10.60
2018,04,25,07,26,10.80
2018,04,25,07,27,10.90
2018,04,25,07,28,11.00
2018,04,25,07,29,11.10
2018,04,25,07,30,11.10
2018,04,25,07,31,11.20
2018,04,25,07,32,11.30
2018,04,25,07,33,11.40
2018,04,25,07,34,11.50
2018,04,25,07,35,11.50
2018,04,25,07,36,11.60
2018,04,25,07,37,11.70
2018,04,25,07,38,11.80
2018,04,25,07,39,11.80
2018,04,25,07,40,11.90
2018,04,25,07,41,11.90
2018,04,25,07,42,12.00
2018,04,25,07,43,12.00
2018,04,25,07,44,12.10
2018,04,25,07,45,12.10
2018,04,25,07,46,12.10
2018,04,25,07,47,12.20
2018,04,25,07,48,12.20
2018,04,25,07,49,12.20
2018,04,25,07,50,12.30
2018,04,25,07,51,12.30
2018,04,25,07,52,12.30
2018,04,25,07,53,12.40
2018,04,25,07,54,12.40
2018,04,25,07,55,12.50
2018,04,25,07,56,12.60
2018,04,25,07,57,12.60
2018,04,25,07,58,12.70
2018,04,25,07,59,12.80
2018,04,25,08,00,12.80
2018,04,25,08,01,12.90
2018,04,25,08,02,12.90
2018,04,25,08,03,13.00
2018,04,25,08,04,13.00
2018,04,25,08,05,13.00
2018,04,25,08,06,13.10
2018,04,25,08,07,13.10
2018,04,25,08,08,13.20
2018,04,25,08,09,13.20
2018,04,25,08,10,13.20
2018,04,25,08,11,13.30
2018,04,25,08,12,13.30
2018,04,25,08,13,13.40
2018,04,25,08,14,13.40
2018,04,25,08,15,13.50
2018,04,25,08,16,13.50
2018,04,25,08,17,13.60
2018,04,25,08,18,13.60
2018,04,25,08,19,13.60
2018,04,25,08,20,13.60
2018,04,25,08,21,13.70
2018,04,25,08,22,13.70
2018,04,25,08,23,13.70
2018,04,25,08,24,13.70
2018,04,25,08,25,13.70
2018,04,25,08,26,13.70
2018,04,25,08,27,13.70
2018,04,25,08,28,13.70
2018,04,25,08,29,13.70
2018,04,25,08,30,13.70
2018,04,25,08,31,13.70
2018,04,25,08,32,13.70
2018,04,25,08,33,13.80
2018,04,25,08,34,13.80
2018,04,25,08,35,13.90
2018,04,25,08,36,13.90
2018,04,25,08,37,14.00
2018,04,25,08,38,14.10
2018,04,25,08,39,14.20
2018,04,25,08,40,14.30
2018,04,25,08,41,14.40
2018,04,25,08,42,14.40
2018,04,25,08,43,14.40
2018,04,25,08,44,14.50
2018,04,25,08,45,14.50
2018,04,25,08,46,14.50
2018,04,25,08,47,14.50
2018,04,25,08,48,14.50
2018,04,25,08,49,14.50
2018,04,25,08,50,14.40
2018,04,25,08,51,14.50
2018,04,25,08,52,14.50
2018,04,25,08,53,14.50
2018,04,25,08,54,14.60
2018,04,25,08,55,14.60
2018,04,25,08,56,14.70
2018,04,25,08,57,14.80
2018,04,25,08,58,14.80
2018,04,25,08,59,14.80
2018,04,25,09,00,14.90
2018,04,25,09,01,14.90
2018,04,25,09,02,15.00
2018,04,25,09,03,15.00
2018,04,25,09,04,15.10
2018,04,25,09,05,15.20
2018,04,25,09,06,15.20
2018,04,25,09,07,15.30
2018,04,25,09,08,15.30
2018,04,25,09,09,15.30
2018,04,25,09,10,15.30
2018,04,25,09,11,15.30
2018,04,25,09,12,15.40
2018,04,25,09,13,15.30
2018,04,25,09,14,15.30
2018,04,25,09,15,15.30
2018,04,25,09,16,15.20
2018,04,25,09,17,15.20
2018,04,25,09,18,15.20
2018,04,25,09,19,15.20
2018,04,25,09,20,15.20
2018,04,25,09,21,15.20
2018,04,25,09,22,15.30
2018,04,25,09,23,15.30
2018,04,25,09,24,15.30
2018,04,25,09,25,15.40
2018,04,25,09,26,15.50
2018,04,25,09,27,15.50
2018,04,25,09,28,15.60
2018,04,25,09,29,15.70
2018,04,25,09,30,15.70
2018,04,25,09,31,15.80
2018,04,25,09,32,15.80
2018,04,25,09,33,15.80
2018,04,25,09,34,15.80
2018,04,25,09,35,15.80
2018,04,25,09,36,15.90
2018,04,25,09,37,15.90
2018,04,25,09,38,16.00
2018,04,25,09,39,16.10
2018,04,25,09,40,16.10
2018,04,25,09,41,16.20
2018,04,25,09,42,16.20
2018,04,25,09,43,16.10
2018,04,25,09,44,16.10
2018,04,25,09,45,16.00
2018,04,25,09,46,15.90
2018,04,25,09,47,15.90
2018,04,25,09,48,15.90
2018,04,25,09,49,15.90
2018,04,25,09,50,16.00
2018,04,25,09,51,16.00
2018,04,25,09,52,16.00
2018,04,25,09,53,16.10
2018,04,25,09,54,16.10
2018,04,25,09,55,16.10
2018,04,25,09,56,16.10
2018,04,25,09,57,16.10
2018,04,25,09,58,16.10
2018,04,25,09,59,16.10
2018,04,25,10,00,16.10
2018,04,25,10,01,16.10
2018,04,25,10,02,16.10
2018,04,25,10,03,16.00
2018,04,25,10,04,16.00
2018,04,25,10,05,16.00
2018,04,25,10,06,16.10
2018,04,25,10,07,16.10
2018,04,25,10,08,16.20
2018,04,25,10,09,16.30
2018,04,25,10,10,16.30
2018,04,25,10,11,16.40
2018,04,25,10,12,16.30
2018,04,25,10,13,16.30
2018,04,25,10,14,16.30
2018,04,25,10,15,16.30
2018,04,25,10,16,16.20
2018,04,25,10,17,16.10
2018,04,25,10,18,16.20
2018,04,25,10,19,16.20
2018,04,25,10,20,16.20
2018,04,25,10,21,16.30
2018,04,25,10,22,16.30
2018,04,25,10,23,16.40
2018,04,25,10,24,16.40
2018,04,25,10,25,16.40
2018,04,25,10,26,16.50
2018,04,25,10,27,16.50
2018,04,25,10,28,16.60
2018,04,25,10,29,16.60
2018,04,25,10,30,16.60
2018,04,25,10,31,16.60
2018,04,25,10,32,16.60
2018,04,25,10,33,16.60
2018,04,25,10,34,16.60
2018,04,25,10,35,16.60
2018,04,25,10,36,16.60
2018,04,25,10,37,16.60
2018,04,25,10,38,16.70
2018,04,25,10,39,16.70
2018,04,25,10,40,16.80
2018,04,25,10,41,17.00
2018,04,25,10,42,17.10
2018,04,25,10,43,17.10
2018,04,25,10,44,17.10
2018,04,25,10,45,17.10
2018,04,25,10,46,17.10
2018,04,25,10,47,17.10
2018,04,25,10,48,17.00
2018,04,25,10,49,16.90
2018,04,25,10,50,16.90
2018,04,25,10,51,16.80
2018,04,25,10,52,16.80
2018,04,25,10,53,16.80
2018,04,25,10,54,16.80
2018,04,25,10,55,16.80
2018,04,25,10,56,16.80
2018,04,25,10,57,16.80
2018,04,25,10,58,16.80
2018,04,25,10,59,16.70
2018,04,25,11,00,16.70
2018,04,25,11,01,16.70
2018,04,25,11,02,16.70
2018,04,25,11,03,16.80
2018,04,25,11,04,16.80
2018,04,25,11,05,16.90
2018,04,25,11,06,16.90
2018,04,25,11,07,16.80
2018,04,25,11,08,16.80
2018,04,25,11,09,16.80
2018,04,25,11,10,16.80
2018,04,25,11,11,16.90
2018,04,25,11,12,16.90
2018,04,25,11,13,16.90
2018,04,25,11,14,16.90
2018,04,25,11,15,17.00
2018,04,25,11,16,17.10
2018,04,25,11,17,17.20
2018,04,25,11,18,17.20
2018,04,25,11,19,17.20
2018,04,25,11,20,17.20
2018,04,25,11,21,17.20
2018,04,25,11,22,17.20
2018,04,25,11,23,17.20
2018,04,25,11,24,17.10
2018,04,25,11,25,17.10
2018,04,25,11,26,17.10
2018,04,25,11,27,17.10
2018,04,25,11,28,17.20
2018,04,25,11,29,17.20
2018,04,25,11,30,17.30
2018,04,25,11,31,17.30
2018,04,25,11,32,17.30
2018,04,25,11,33,17.30
2018,04,25,11,34,17.40
2018,04,25,11,35,17.40
2018,04,25,11,36,17.40
2018,04,25,11,37,17.40
2018,04,25,11,38,17.40
2018,04,25,11,39,17.40
2018,04,25,11,40,17.30
2018,04,25,11,41,17.30
2018,04,25,11,42,17.30
2018,04,25,11,43,17.30
2018,04,25,11,44,17.30
2018,04,25,11,45,17.30
2018,04,25,11,46,17.30
2018,04,25,11,47,17.40
2018,04,25,11,48,17.40
2018,04,25,11,49,17.30
2018,04,25,11,50,17.20
2018,04,25,11,51,17.20
2018,04,25,11,52,17.10
2018,04,25,11,53,17.20
2018,04,25,11,54,17.10
2018,04,25,11,55,17.10
2018,04,25,11,56,17.10
2018,04,25,11,57,17.20
2018,04,25,11,58,17.20
2018,04,25,11,59,17.20
2018,04,25,12,00,17.20
2018,04,25,12,01,17.30
2018,04,25,12,02,17.30
2018,04,25,12,03,17.30
2018,04,25,12,04,17.40
2018,04,25,12,05,17.40
2018,04,25,12,06,17.50
2018,04,25,12,07,17.50
2018,04,25,12,08,17.50
2018,04,25,12,09,17.50
2018,04,25,12,10,17.50
2018,04,25,12,11,17.60
2018,04,25,12,12,17.60
2018,04,25,12,13,17.60
2018,04,25,12,14,17.50
2018,04,25,12,15,17.50
2018,04,25,12,16,17.50
2018,04,25,12,17,17.50
2018,04,25,12,18,17.50
2018,04,25,12,19,17.60
2018,04,25,12,20,17.70
2018,04,25,12,21,17.70
2018,04,25,12,22,17.70
2018,04,25,12,23,17.60
2018,04,25,12,24,17.50
2018,04,25,12,25,17.40
2018,04,25,12,26,17.30
2018,04,25,12,27,17.30
2018,04,25,12,28,17.30
2018,04,25,12,29,17.40
2018,04,25,12,30,17.40
2018,04,25,12,31,17.50
2018,04,25,12,32,17.70
2018,04,25,12,33,17.70
2018,04,25,12,34,17.70
2018,04,25,12,35,17.70
2018,04,25,12,36,17.70
2018,04,25,12,37,17.70
2018,04,25,12,38,17.70
2018,04,25,12,39,17.70
2018,04,25,12,40,17.70
2018,04,25,12,41,17.80
2018,04,25,12,42,17.80
2018,04,25,12,43,17.90
2018,04,25,12,44,17.90
2018,04,25,12,45,17.90
2018,04,25,12,46,17.90
2018,04,25,12,47,17.90
2018,04,25,12,48,17.80
2018,04,25,12,49,17.80
2018,04,25,12,50,17.80
2018,04,25,12,51,17.80
2018,04,25,12,52,17.90
2018,04,25,12,53,17.90
2018,04,25,12,54,17.90
2018,04,25,12,55,17.90
2018,04,25,12,56,17.90
2018,04,25,12,57,17.90
2018,04,25,12,58,17.80
2018,04,25,12,59,17.90
2018,04,25,13,00,17.90
2018,04,25,13,01,18.00
2018,04,25,13,02,18.00
2018,04,25,13,03,17.90
2018,04,25,13,04,17.90
2018,04,25,13,05,17.90
2018,04,25,13,06,17.90
2018,04,25,13,07,18.00
2018,04,25,13,08,18.00
2018,04,25,13,09,18.20
2018,04,25,13,10,18.20
2018,04,25,13,11,18.40
2018,04,25,13,12,18.40
2018,04,25,13,13,18.50
2018,04,25,13,14,18.50
2018,04,25,13,15,18.60
2018,04,25,13,16,18.60
2018,04,25,13,17,18.70
2018,04,25,13,18,18.70
2018,04,25,13,19,18.80
2018,04,25,13,20,18.70
2018,04,25,13,21,18.70
2018,04,25,13,22,18.80
2018,04,25,13,23,18.90
2018,04,25,13,24,18.90
2018,04,25,13,25,18.90
2018,04,25,13,26,18.90
2018,04,25,13,27,19.00
2018,04,25,13,28,19.20
2018,04,25,13,29,19.30
2018,04,25,13,30,19.40
2018,04,25,13,31,19.40
2018,04,25,13,32,19.40
2018,04,25,13,33,19.30
2018,04,25,13,34,19.30
2018,04,25,13,35,19.30
2018,04,25,13,36,19.30
2018,04,25,13,37,19.30
2018,04,25,13,38,19.20
2018,04,25,13,39,19.20
2018,04,25,13,40,19.10
2018,04,25,13,41,19.10
2018,04,25,13,42,19.10
2018,04,25,13,43,19.10
2018,04,25,13,44,18.90
2018,04,25,13,45,18.90
2018,04,25,13,46,18.80
2018,04,25,13,47,18.90
2018,04,25,13,48,19.00
2018,04,25,13,49,19.00
2018,04,25,13,50,19.10
2018,04,25,13,51,19.10
2018,04,25,13,52,19.10
2018,04,25,13,53,19.30
2018,04,25,13,54,19.40
2018,04,25,13,55,19.50
2018,04,25,13,56,19.50
2018,04,25,13,57,19.50
2018,04,25,13,58,19.50
2018,04,25,13,59,19.40
2018,04,25,14,00,19.40
2018,04,25,14,01,19.30
2018,04,25,14,02,19.20
2018,04,25,14,03,19.20
2018,04,25,14,04,19.20
2018,04,25,14,05,19.30
2018,04,25,14,06,19.30
2018,04,25,14,07,19.30
2018,04,25,14,08,19.30
2018,04,25,14,09,19.40
2018,04,25,14,10,19.40
2018,04,25,14,11,19.40
2018,04,25,14,12,19.50
2018,04,25,14,13,19.40
2018,04,25,14,14,19.40
2018,04,25,14,15,19.40
2018,04,25,14,16,19.40
2018,04,25,14,17,19.50
2018,04,25,14,18,19.60
2018,04,25,14,19,19.60
2018,04,25,14,20,19.60
2018,04,25,14,21,19.70
2018,04,25,14,22,19.70
2018,04,25,14,23,19.70
2018,04,25,14,24,19.80
2018,04,25,14,25,19.80
2018,04,25,14,26,19.80
2018,04,25,14,27,19.80
2018,04,25,14,28,19.90
2018,04,25,14,29,19.90
2018,04,25,14,30,20.00
2018,04,25,14,31,20.00
2018,04,25,14,32,19.90
2018,04,25,14,33,19.90
2018,04,25,14,34,19.80
2018,04,25,14,35,19.80
2018,04,25,14,36,19.80
2018,04,25,14,37,19.90
2018,04,25,14,38,20.00
2018,04,25,14,39,20.10
2018,04,25,14,40,20.10
2018,04,25,14,41,20.10
2018,04,25,14,42,20.10
2018,04,25,14,43,20.10
2018,04,25,14,44,20.20
2018,04,25,14,45,20.30
2018,04,25,14,46,20.40
2018,04,25,14,47,20.50
2018,04,25,14,48,20.60
2018,04,25,14,49,20.60
2018,04,25,14,50,20.60
2018,04,25,14,51,20.60
2018,04,25,14,52,20.60
2018,04,25,14,53,20.60
2018,04,25,14,54,20.70
2018,04,25,14,55,20.80
2018,04,25,14,56,20.90
2018,04,25,14,57,20.90
2018,04,25,14,58,21.00
2018,04,25,14,59,21.10
2018,04,25,15,00,21.20
2018,04,25,15,01,21.20
2018,04,25,15,02,21.20
2018,04,25,15,03,21.10
2018,04,25,15,04,21.10
2018,04,25,15,05,21.00
2018,04,25,15,06,20.90
2018,04,25,15,07,20.70
2018,04,25,15,08,20.60
2018,04,25,15,09,20.60
2018,04,25,15,10,20.60
2018,04,25,15,11,20.70
2018,04,25,15,12,20.70
2018,04,25,15,13,20.80
2018,04,25,15,14,20.90
2018,04,25,15,15,20.90
2018,04,25,15,16,20.90
2018,04,25,15,17,20.90
2018,04,25,15,18,20.80
2018,04,25,15,19,20.90
2018,04,25,15,20,20.90
2018,04,25,15,21,21.00
2018,04,25,15,22,21.10
2018,04,25,15,23,21.10
2018,04,25,15,24,21.20
2018,04,25,15,25,21.20
2018,04,25,15,26,21.20
2018,04,25,15,27,21.30
2018,04,25,15,28,21.30
2018,04,25,15,29,21.30
2018,04,25,15,30,21.30
2018,04,25,15,31,21.30
2018,04,25,15,32,21.30
2018,04,25,15,33,21.40
2018,04,25,15,34,21.40
2018,04,25,15,35,21.40
2018,04,25,15,36,21.50
2018,04,25,15,37,21.60
2018,04,25,15,38,21.60
2018,04,25,15,39,21.70
2018,04,25,15,40,21.70
2018,04,25,15,41,21.60
2018,04,25,15,42,21.50
2018,04,25,15,43,21.50
2018,04,25,15,44,21.40
2018,04,25,15,45,21.40
2018,04,25,15,46,21.40
2018,04,25,15,47,21.40
2018,04,25,15,48,21.50
2018,04,25,15,49,21.50
2018,04,25,15,50,21.60
2018,04,25,15,51,21.70
2018,04,25,15,52,21.70
2018,04,25,15,53,21.70
2018,04,25,15,54,21.80
2018,04,25,15,55,21.90
2018,04,25,15,56,22.00
2018,04,25,15,57,22.00
2018,04,25,15,58,22.10
2018,04,25,15,59,22.10
2018,04,25,16,00,22.10
2018,04,25,16,01,22.10
2018,04,25,16,02,22.20
2018,04,25,16,03,22.20
2018,04,25,16,04,22.20
2018,04,25,16,05,22.10
2018,04,25,16,06,22.10
2018,04,25,16,07,22.00
2018,04,25,16,08,21.90
2018,04,25,16,09,22.00
2018,04,25,16,10,22.00
2018,04,25,16,11,22.10
2018,04,25,16,12,22.20
2018,04,25,16,13,22.20
2018,04,25,16,14,22.30
2018,04,25,16,15,22.30
2018,04,25,16,16,22.30
2018,04,25,16,17,22.30
2018,04,25,16,18,22.40
2018,04,25,16,19,22.50
2018,04,25,16,20,22.60
2018,04,25,16,21,22.60
2018,04,25,16,22,22.70
2018,04,25,16,23,22.70
2018,04,25,16,24,22.70
2018,04,25,16,25,22.70
2018,04,25,16,26,22.70
2018,04,25,16,27,22.70
2018,04,25,16,28,22.80
2018,04,25,16,29,22.70
2018,04,25,16,30,22.80
2018,04,25,16,31,22.70
2018,04,25,16,32,22.70
2018,04,25,16,33,22.60
2018,04,25,16,34,22.60
2018,04,25,16,35,22.60
2018,04,25,16,36,22.60
2018,04,25,16,37,22.60
2018,04,25,16,38,22.70
2018,04,25,16,39,22.70
2018,04,25,16,40,22.70
2018,04,25,16,41,22.80
2018,04,25,16,42,22.80
2018,04,25,16,43,22.80
2018,04,25,16,44,22.80
2018,04,25,16,45,22.80
2018,04,25,16,46,22.90
2018,04,25,16,47,22.90
2018,04,25,16,48,22.90
2018,04,25,16,49,22.80
2018,04,25,16,50,22.80
2018,04,25,16,51,22.70
2018,04,25,16,52,22.60
2018,04,25,16,53,22.50
2018,04,25,16,54,22.40
2018,04,25,16,55,22.30
2018,04,25,16,56,22.30
2018,04,25,16,57,22.20
2018,04,25,16,58,22.10
2018,04,25,16,59,22.10
2018,04,25,17,00,22.10
2018,04,25,17,01,22.10
2018,04,25,17,02,22.10
2018,04,25,17,03,22.00
2018,04,25,17,04,22.00
2018,04,25,17,05,21.90
2018,04,25,17,06,21.90
2018,04,25,17,07,21.90
2018,04,25,17,08,21.80
2018,04,25,17,09,21.80
2018,04,25,17,10,21.90
2018,04,25,17,11,21.90
2018,04,25,17,12,21.90
2018,04,25,17,13,22.00
2018,04,25,17,14,22.10
2018,04,25,17,15,22.20
2018,04,25,17,16,22.20
2018,04,25,17,17,22.30
2018,04,25,17,18,22.30
2018,04,25,17,19,22.30
2018,04,25,17,20,22.30
2018,04,25,17,21,22.20
2018,04,25,17,22,22.20
2018,04,25,17,23,22.10
2018,04,25,17,24,22.10
2018,04,25,17,25,22.20
2018,04,25,17,26,22.20
2018,04,25,17,27,22.20
2018,04,25,17,28,22.20
2018,04,25,17,29,22.20
2018,04,25,17,30,22.30
2018,04,25,17,31,22.30
2018,04,25,17,32,22.40
2018,04,25,17,33,22.50
2018,04,25,17,34,22.60
2018,04,25,17,35,22.70
2018,04,25,17,36,22.70